LRC640 MGGT-KLAX

Flight info

Callsign LRC640
Flight time 4h 29m
Altitude 36000
Route ULEBI UW3 ASOKU UL655 IREKO/N0454F380 UL655 PPE J93 ASUTA DCT AMMOR OLAAA2
Aircraft A20N/M-SDE2E3FGHIRWXY/LB1

Departure

Time 2026-05-07 14:56
Airport La Aurora International Airport (MGGT)

Arrival

Time 2026-05-07 19:25
Airport Los Angeles International Airport (KLAX)
Time Latitude Longitude Altitude Speed Heading
2026-05-07 14:03 14.59005 -90.52837 4952 ft 0 kts 287°
2026-05-07 14:39 14.59003 -90.52830 4952 ft 2 kts 287°
2026-05-07 14:40 14.58999 -90.52815 4952 ft 2 kts 287°
2026-05-07 14:40 14.58994 -90.52801 4952 ft 2 kts 287°
2026-05-07 14:40 14.58990 -90.52786 4952 ft 2 kts 287°
2026-05-07 14:40 14.58987 -90.52776 4952 ft 1 kts 287°
2026-05-07 14:41 14.58986 -90.52760 4952 ft 2 kts 254°
2026-05-07 14:41 14.58992 -90.52747 4952 ft 2 kts 225°
2026-05-07 14:41 14.59003 -90.52739 4952 ft 0 kts 201°
2026-05-07 14:41 14.59009 -90.52737 4952 ft 1 kts 196°
2026-05-07 14:42 14.59010 -90.52737 4952 ft 0 kts 197°
2026-05-07 14:43 14.58988 -90.52744 4952 ft 7 kts 198°
2026-05-07 14:43 14.58914 -90.52768 4952 ft 12 kts 196°
2026-05-07 14:43 14.58831 -90.52782 4953 ft 12 kts 167°
2026-05-07 14:44 14.58789 -90.52731 4953 ft 9 kts 107°
2026-05-07 14:44 14.58784 -90.52713 4953 ft 0 kts 107°
2026-05-07 14:46 14.58783 -90.52710 4953 ft 2 kts 107°
2026-05-07 14:47 14.58789 -90.52669 4953 ft 10 kts 39°
2026-05-07 14:47 14.58867 -90.52642 4952 ft 12 kts 17°
2026-05-07 14:47 14.58951 -90.52615 4952 ft 14 kts 17°
2026-05-07 14:47 14.59064 -90.52579 4951 ft 19 kts 17°
2026-05-07 14:48 14.59187 -90.52539 4951 ft 15 kts 18°
2026-05-07 14:48 14.59288 -90.52506 4951 ft 15 kts 17°
2026-05-07 14:48 14.59387 -90.52474 4950 ft 14 kts 18°
2026-05-07 14:48 14.59487 -90.52443 4950 ft 14 kts 17°
2026-05-07 14:49 14.59552 -90.52422 4949 ft 5 kts 18°
2026-05-07 14:49 14.59563 -90.52418 4949 ft 0 kts 18°
2026-05-07 14:54 14.59576 -90.52412 4949 ft 6 kts 26°
2026-05-07 14:54 14.59583 -90.52354 4949 ft 10 kts 143°
2026-05-07 14:54 14.59544 -90.52356 4949 ft 0 kts 198°
2026-05-07 14:54 14.59541 -90.52357 4949 ft 2 kts 198°
2026-05-07 14:55 14.59339 -90.52424 4950 ft 66 kts 198°
2026-05-07 14:55 14.58671 -90.52638 4953 ft 129 kts 197°
2026-05-07 14:55 14.57635 -90.52967 4972 ft 180 kts 199°
2026-05-07 14:55 14.56418 -90.53361 5529 ft 184 kts 198°
2026-05-07 14:56 14.55188 -90.53760 6208 ft 188 kts 198°
2026-05-07 14:56 14.53938 -90.54169 6904 ft 192 kts 198°
2026-05-07 14:56 14.52653 -90.54593 7290 ft 198 kts 197°
2026-05-07 14:56 14.51284 -90.55016 7528 ft 210 kts 192°
2026-05-07 14:57 14.49773 -90.55136 7770 ft 222 kts 175°
2026-05-07 14:57 14.48216 -90.54748 8028 ft 237 kts 157°
2026-05-07 14:57 14.46765 -90.53801 8264 ft 257 kts 136°
2026-05-07 14:57 14.45585 -90.52341 8751 ft 271 kts 127°
2026-05-07 14:58 14.44444 -90.50719 9224 ft 285 kts 126°
2026-05-07 14:58 14.43332 -90.49012 9784 ft 291 kts 115°
2026-05-07 14:58 14.42891 -90.46969 10201 ft 298 kts 89°
2026-05-07 14:58 14.43384 -90.44847 10342 ft 313 kts 62°
2026-05-07 14:59 14.44817 -90.43160 10433 ft 323 kts 33°
2026-05-07 14:59 14.46945 -90.42334 10588 ft 333 kts
2026-05-07 14:59 14.49259 -90.42670 10867 ft 336 kts 335°
2026-05-07 14:59 14.51295 -90.43842 11300 ft 333 kts 328°
2026-05-07 15:00 14.53249 -90.45061 11816 ft 328 kts 329°
2026-05-07 15:00 14.55210 -90.46272 12269 ft 326 kts 329°
2026-05-07 15:00 14.57184 -90.47477 12670 ft 328 kts 330°
2026-05-07 15:00 14.59169 -90.48678 13102 ft 329 kts 331°
2026-05-07 15:01 14.61164 -90.49879 13542 ft 331 kts 332°
2026-05-07 15:01 14.63191 -90.51093 13992 ft 333 kts 332°
2026-05-07 15:01 14.65195 -90.52287 14431 ft 336 kts 332°
2026-05-07 15:01 14.67233 -90.53504 14851 ft 337 kts 332°
2026-05-07 15:02 14.69309 -90.54742 15103 ft 347 kts 332°
2026-05-07 15:02 14.71457 -90.56026 15309 ft 358 kts 332°
2026-05-07 15:02 14.73659 -90.57343 15512 ft 369 kts 332°
2026-05-07 15:02 14.75926 -90.58698 15823 ft 375 kts 332°
2026-05-07 15:03 14.78174 -90.60043 16229 ft 378 kts 332°
2026-05-07 15:03 14.80459 -90.61419 16639 ft 381 kts 330°
2026-05-07 15:03 14.82500 -90.63168 16948 ft 386 kts 310°
2026-05-07 15:03 14.84087 -90.65443 17336 ft 388 kts 304°
2026-05-07 15:04 14.85556 -90.67799 17696 ft 390 kts 303°
2026-05-07 15:04 14.87050 -90.70174 18054 ft 394 kts 304°
2026-05-07 15:04 14.88578 -90.72536 18425 ft 396 kts 305°
2026-05-07 15:04 14.90136 -90.74894 18784 ft 398 kts 305°
2026-05-07 15:05 14.91710 -90.77243 19154 ft 400 kts 306°
2026-05-07 15:05 14.93318 -90.79624 19518 ft 402 kts 306°
2026-05-07 15:05 14.94938 -90.82013 19871 ft 405 kts 306°
2026-05-07 15:05 14.96554 -90.84390 20214 ft 407 kts 306°
2026-05-07 15:06 14.98188 -90.86790 20553 ft 409 kts 306°
2026-05-07 15:06 14.99822 -90.89189 20877 ft 412 kts 306°
2026-05-07 15:06 15.01502 -90.91651 21202 ft 414 kts 306°
2026-05-07 15:06 15.03159 -90.94081 21523 ft 417 kts 306°
2026-05-07 15:07 15.04839 -90.96545 21844 ft 420 kts 306°
2026-05-07 15:07 15.06527 -90.99023 22157 ft 422 kts 306°
2026-05-07 15:07 15.08234 -91.01530 22466 ft 425 kts 306°
2026-05-07 15:07 15.09948 -91.04048 22768 ft 426 kts 306°
2026-05-07 15:08 15.11681 -91.06596 23054 ft 429 kts 306°
2026-05-07 15:08 15.13396 -91.09119 23420 ft 429 kts 306°
2026-05-07 15:08 15.15123 -91.11659 23787 ft 429 kts 306°
2026-05-07 15:08 15.16831 -91.14172 24096 ft 431 kts 306°
2026-05-07 15:09 15.18566 -91.16725 24393 ft 433 kts 306°
2026-05-07 15:09 15.20304 -91.19286 24698 ft 436 kts 306°
2026-05-07 15:09 15.22048 -91.21854 25017 ft 437 kts 306°
2026-05-07 15:09 15.23808 -91.24451 25340 ft 438 kts 306°
2026-05-07 15:10 15.25568 -91.27045 25647 ft 440 kts 306°
2026-05-07 15:10 15.27346 -91.29658 25954 ft 441 kts 306°
2026-05-07 15:10 15.29109 -91.32261 26262 ft 442 kts 306°
2026-05-07 15:10 15.30867 -91.34861 26556 ft 443 kts 306°
2026-05-07 15:11 15.32638 -91.37479 26865 ft 444 kts 306°
2026-05-07 15:11 15.34405 -91.40090 27170 ft 445 kts 306°
2026-05-07 15:11 15.36174 -91.42705 27470 ft 446 kts 306°
2026-05-07 15:11 15.37979 -91.45373 27776 ft 447 kts 306°
2026-05-07 15:12 15.39748 -91.47988 28094 ft 448 kts 306°
2026-05-07 15:12 15.41552 -91.50656 28423 ft 449 kts 306°
2026-05-07 15:12 15.43347 -91.53310 28750 ft 450 kts 306°
2026-05-07 15:12 15.45148 -91.55975 29070 ft 451 kts 305°
2026-05-07 15:13 15.46946 -91.58634 29381 ft 452 kts 305°
2026-05-07 15:13 15.48758 -91.61317 29685 ft 454 kts 305°
2026-05-07 15:13 15.50547 -91.63967 29981 ft 455 kts 305°
2026-05-07 15:13 15.52396 -91.66709 30274 ft 457 kts 305°
2026-05-07 15:14 15.54223 -91.69418 30545 ft 459 kts 305°
2026-05-07 15:14 15.56046 -91.72122 30806 ft 461 kts 305°
2026-05-07 15:14 15.57881 -91.74847 31133 ft 460 kts 305°
2026-05-07 15:14 15.59714 -91.77570 31502 ft 458 kts 305°
2026-05-07 15:15 15.61521 -91.80255 31859 ft 456 kts 305°
2026-05-07 15:15 15.63332 -91.82949 31819 ft 455 kts 305°
2026-05-07 15:15 15.66969 -91.88354 32117 ft 460 kts 305°
2026-05-07 15:16 15.68846 -91.91073 32793 ft 459 kts 307°
2026-05-07 15:16 15.70805 -91.93623 33385 ft 451 kts 310°
2026-05-07 15:16 15.72884 -91.96040 33952 ft 444 kts 314°
2026-05-07 15:16 15.75043 -91.98283 34129 ft 443 kts 317°
2026-05-07 15:17 15.79601 -92.02626 34120 ft 440 kts 318°
2026-05-07 15:17 15.84101 -92.06884 34118 ft 440 kts 318°
2026-05-07 15:18 15.88629 -92.11183 34118 ft 440 kts 318°
2026-05-07 15:18 15.93157 -92.15488 34119 ft 440 kts 317°
2026-05-07 15:19 15.97671 -92.19783 34112 ft 440 kts 317°
2026-05-07 15:19 16.02185 -92.24084 34111 ft 440 kts 317°
2026-05-07 15:20 16.06702 -92.28390 34123 ft 440 kts 317°
2026-05-07 15:20 16.11212 -92.32693 34135 ft 441 kts 317°
2026-05-07 15:21 16.15793 -92.37065 34141 ft 441 kts 317°
2026-05-07 15:21 16.20324 -92.41396 34136 ft 441 kts 317°
2026-05-07 15:22 16.24843 -92.45714 34122 ft 440 kts 317°
2026-05-07 15:22 16.29341 -92.50016 34105 ft 440 kts 317°
2026-05-07 15:23 16.33848 -92.54328 34107 ft 440 kts 317°
2026-05-07 15:23 16.38365 -92.58655 34115 ft 440 kts 317°
2026-05-07 15:24 16.42864 -92.62966 34118 ft 440 kts 318°
2026-05-07 15:24 16.47396 -92.67311 34108 ft 440 kts 317°
2026-05-07 15:25 16.51918 -92.71652 34095 ft 440 kts 317°
2026-05-07 15:25 16.56438 -92.75993 34101 ft 440 kts 317°
2026-05-07 15:26 16.60930 -92.80308 34126 ft 439 kts 317°
2026-05-07 15:26 16.65405 -92.84610 34142 ft 439 kts 317°
2026-05-07 15:27 16.69930 -92.88963 34142 ft 440 kts 317°
2026-05-07 15:27 16.74428 -92.93293 34139 ft 440 kts 317°
2026-05-07 15:28 16.78924 -92.97623 34123 ft 440 kts 317°
2026-05-07 15:28 16.83439 -93.01977 34120 ft 440 kts 317°
2026-05-07 15:29 16.87919 -93.06300 34138 ft 439 kts 317°
2026-05-07 15:29 16.92424 -93.10648 34151 ft 439 kts 317°
2026-05-07 15:30 16.96887 -93.14959 34155 ft 439 kts 317°
2026-05-07 15:30 17.01384 -93.19308 34151 ft 440 kts 317°
2026-05-07 15:31 17.05884 -93.23659 34128 ft 441 kts 317°
2026-05-07 15:31 17.10411 -93.28038 34102 ft 441 kts 317°
2026-05-07 15:32 17.14920 -93.32407 34068 ft 442 kts 317°
2026-05-07 15:32 17.19428 -93.36782 34040 ft 441 kts 317°
2026-05-07 15:33 17.23936 -93.41157 34018 ft 441 kts 317°
2026-05-07 15:33 17.28449 -93.45538 33975 ft 442 kts 317°
2026-05-07 15:34 17.32957 -93.49919 33956 ft 442 kts 317°
2026-05-07 15:34 17.37478 -93.54314 33938 ft 443 kts 317°
2026-05-07 15:35 17.41973 -93.58686 33938 ft 443 kts 317°
2026-05-07 15:35 17.46490 -93.63084 33948 ft 444 kts 317°
2026-05-07 15:36 17.51056 -93.67531 33942 ft 443 kts 317°
2026-05-07 15:36 17.55573 -93.71935 33942 ft 443 kts 317°
2026-05-07 15:37 17.60081 -93.76332 33930 ft 444 kts 316°
2026-05-07 15:37 17.64621 -93.80765 33912 ft 444 kts 316°
2026-05-07 15:38 17.69125 -93.85165 33900 ft 444 kts 316°
2026-05-07 15:38 17.73648 -93.89587 33889 ft 444 kts 316°
2026-05-07 15:39 17.78163 -93.94003 33878 ft 444 kts 316°
2026-05-07 15:39 17.82691 -93.98438 33879 ft 444 kts 316°
2026-05-07 15:40 17.87213 -94.02869 33880 ft 443 kts 316°
2026-05-07 15:40 17.91693 -94.07262 33880 ft 443 kts 316°
2026-05-07 15:41 17.96199 -94.11682 33873 ft 442 kts 316°
2026-05-07 15:41 18.00698 -94.16101 33875 ft 443 kts 316°
2026-05-07 15:42 18.05209 -94.20534 33876 ft 444 kts 316°
2026-05-07 15:42 18.09731 -94.24980 33877 ft 445 kts 316°
2026-05-07 15:43 18.14231 -94.29408 33876 ft 444 kts 316°
2026-05-07 15:43 18.18750 -94.33858 33877 ft 443 kts 316°
2026-05-07 15:44 18.23236 -94.38279 33873 ft 444 kts 316°
2026-05-07 15:44 18.27767 -94.42751 33871 ft 444 kts 316°
2026-05-07 15:45 18.32263 -94.47189 33870 ft 444 kts 316°
2026-05-07 15:45 18.36750 -94.51619 33864 ft 444 kts 316°
2026-05-07 15:46 18.43503 -94.58295 33865 ft 444 kts 316°
2026-05-07 15:47 18.48002 -94.62749 33864 ft 444 kts 316°
2026-05-07 15:47 18.52511 -94.67216 33862 ft 443 kts 315°
2026-05-07 15:48 18.57018 -94.71684 33862 ft 444 kts 315°
2026-05-07 15:48 18.61526 -94.76154 33864 ft 444 kts 315°
2026-05-07 15:49 18.66001 -94.80598 33863 ft 444 kts 315°
2026-05-07 15:49 18.70498 -94.85066 33866 ft 444 kts 315°
2026-05-07 15:50 18.74998 -94.89542 33867 ft 443 kts 315°
2026-05-07 15:50 18.79483 -94.94005 33868 ft 443 kts 315°
2026-05-07 15:51 18.83945 -94.98449 33868 ft 443 kts 315°
2026-05-07 15:51 18.88437 -95.02928 33867 ft 443 kts 315°
2026-05-07 15:52 18.92911 -95.07394 33856 ft 443 kts 315°
2026-05-07 15:52 18.97391 -95.11869 33854 ft 443 kts 314°
2026-05-07 15:53 19.01615 -95.16614 33854 ft 442 kts 308°
2026-05-07 15:53 19.05453 -95.21662 33852 ft 441 kts 307°
2026-05-07 15:54 19.09267 -95.26741 33852 ft 440 kts 307°
2026-05-07 15:54 19.13087 -95.31824 33851 ft 440 kts 307°
2026-05-07 15:55 19.16871 -95.36858 33851 ft 440 kts 307°
2026-05-07 15:55 19.20673 -95.41919 33851 ft 440 kts 306°
2026-05-07 15:56 19.24468 -95.46974 33851 ft 439 kts 307°
2026-05-07 15:56 19.28267 -95.52039 33852 ft 439 kts 306°
2026-05-07 15:57 19.32069 -95.57113 33855 ft 437 kts 307°
2026-05-07 15:57 19.35843 -95.62148 33854 ft 437 kts 306°
2026-05-07 15:58 19.39644 -95.67226 33856 ft 438 kts 306°
2026-05-07 15:58 19.43399 -95.72247 33856 ft 437 kts 306°
2026-05-07 15:59 19.47169 -95.77290 33858 ft 436 kts 306°
2026-05-07 15:59 19.50928 -95.82329 33860 ft 436 kts 306°
2026-05-07 16:00 19.54698 -95.87389 33861 ft 435 kts 306°
2026-05-07 16:00 19.58431 -95.92400 33862 ft 435 kts 306°
2026-05-07 16:01 19.62171 -95.97426 33862 ft 434 kts 306°
2026-05-07 16:01 19.65910 -96.02452 33866 ft 434 kts 306°
2026-05-07 16:02 19.69679 -96.07526 33866 ft 434 kts 306°
2026-05-07 16:02 19.73410 -96.12547 33869 ft 434 kts 306°
2026-05-07 16:03 19.77131 -96.17563 33873 ft 433 kts 306°
2026-05-07 16:03 19.80871 -96.22608 33874 ft 432 kts 306°
2026-05-07 16:04 19.84578 -96.27608 33875 ft 432 kts 306°
2026-05-07 16:04 19.88310 -96.32649 33879 ft 431 kts 306°
2026-05-07 16:05 19.91992 -96.37624 33881 ft 431 kts 306°
2026-05-07 16:05 19.95712 -96.42657 33882 ft 430 kts 306°
2026-05-07 16:06 19.99404 -96.47661 33881 ft 429 kts 306°
2026-05-07 16:06 20.03096 -96.52669 33878 ft 429 kts 306°
2026-05-07 16:07 20.06795 -96.57690 33881 ft 429 kts 306°
2026-05-07 16:07 20.10449 -96.62656 33883 ft 429 kts 306°
2026-05-07 16:08 20.14172 -96.67718 33886 ft 429 kts 306°
2026-05-07 16:08 20.17851 -96.72724 33879 ft 428 kts 306°
2026-05-07 16:09 20.21785 -96.77517 33877 ft 429 kts 310°
2026-05-07 16:09 20.25844 -96.82147 33869 ft 429 kts 311°
2026-05-07 16:10 20.29937 -96.86824 33868 ft 430 kts 311°
2026-05-07 16:10 20.34006 -96.91482 33868 ft 429 kts 310°
2026-05-07 16:11 20.38045 -96.96117 33870 ft 430 kts 310°
2026-05-07 16:11 20.42126 -97.00803 33866 ft 429 kts 310°
2026-05-07 16:12 20.46193 -97.05478 33873 ft 429 kts 310°
2026-05-07 16:12 20.50266 -97.10163 33872 ft 430 kts 310°
2026-05-07 16:13 20.54318 -97.14828 33878 ft 430 kts 310°
2026-05-07 16:13 20.58389 -97.19518 33888 ft 430 kts 310°
2026-05-07 16:14 20.62444 -97.24194 33897 ft 430 kts 310°
2026-05-07 16:14 20.66495 -97.28869 33893 ft 430 kts 310°
2026-05-07 16:15 20.70567 -97.33570 33893 ft 430 kts 310°
2026-05-07 16:15 20.74625 -97.38259 33892 ft 430 kts 310°
2026-05-07 16:16 20.78692 -97.42964 33893 ft 430 kts 310°
2026-05-07 16:16 20.82768 -97.47685 33891 ft 430 kts 310°
2026-05-07 16:17 20.86825 -97.52385 33892 ft 430 kts 310°
2026-05-07 16:17 20.90880 -97.57090 33888 ft 430 kts 310°
2026-05-07 16:18 20.94951 -97.61816 33890 ft 430 kts 310°
2026-05-07 16:18 20.99010 -97.66532 33901 ft 430 kts 309°
2026-05-07 16:19 21.02670 -97.70789 33903 ft 431 kts 309°
2026-05-07 16:19 21.06735 -97.75520 33902 ft 430 kts 309°
2026-05-07 16:20 21.10814 -97.80274 33905 ft 429 kts 309°
2026-05-07 16:20 21.14869 -97.85006 33910 ft 429 kts 309°
2026-05-07 16:21 21.18929 -97.89748 33912 ft 429 kts 309°
2026-05-07 16:21 21.22977 -97.94473 33905 ft 429 kts 309°
2026-05-07 16:22 21.27016 -97.99191 33883 ft 429 kts 308°
2026-05-07 16:22 21.31108 -98.03979 33878 ft 429 kts 309°
2026-05-07 16:23 21.35137 -98.08698 33879 ft 428 kts 308°
2026-05-07 16:23 21.39163 -98.13416 33874 ft 427 kts 308°
2026-05-07 16:24 21.43198 -98.18149 33875 ft 427 kts 308°
2026-05-07 16:24 21.47193 -98.22841 33886 ft 426 kts 308°
2026-05-07 16:25 21.51211 -98.27563 33898 ft 426 kts 308°
2026-05-07 16:25 21.55220 -98.32278 33896 ft 426 kts 308°
2026-05-07 16:26 21.59216 -98.36982 33897 ft 426 kts 308°
2026-05-07 16:26 21.63232 -98.41714 33895 ft 426 kts 308°
2026-05-07 16:27 21.67222 -98.46418 33891 ft 425 kts 308°
2026-05-07 16:27 21.71216 -98.51135 33890 ft 425 kts 308°
2026-05-07 16:28 21.75220 -98.55864 33887 ft 425 kts 308°
2026-05-07 16:28 21.79201 -98.60570 33887 ft 424 kts 308°
2026-05-07 16:29 21.83178 -98.65278 33889 ft 424 kts 308°
2026-05-07 16:29 21.87214 -98.70061 33886 ft 423 kts 308°
2026-05-07 16:30 21.91176 -98.74756 33874 ft 423 kts 308°
2026-05-07 16:30 21.95154 -98.79478 33870 ft 423 kts 308°
2026-05-07 16:31 21.99092 -98.84157 33872 ft 422 kts 307°
2026-05-07 16:31 22.03031 -98.88842 33869 ft 421 kts 307°
2026-05-07 16:32 22.06987 -98.93550 33879 ft 420 kts 308°
2026-05-07 16:32 22.10935 -98.98251 33880 ft 422 kts 307°
2026-05-07 16:33 22.14873 -99.02943 33890 ft 422 kts 307°
2026-05-07 16:33 22.18827 -99.07664 33899 ft 422 kts 308°
2026-05-07 16:34 22.22764 -99.12365 33901 ft 422 kts 307°
2026-05-07 16:34 22.26699 -99.17067 33906 ft 421 kts 308°
2026-05-07 16:35 22.30624 -99.21764 33914 ft 420 kts 307°
2026-05-07 16:35 22.34529 -99.26444 33922 ft 421 kts 307°
2026-05-07 16:36 22.38468 -99.31170 33952 ft 421 kts 307°
2026-05-07 16:36 22.42352 -99.35834 33991 ft 420 kts 307°
2026-05-07 16:37 22.46267 -99.40540 34028 ft 420 kts 308°
2026-05-07 16:37 22.50164 -99.45225 34056 ft 420 kts 308°
2026-05-07 16:38 22.54084 -99.49929 34086 ft 420 kts 307°
2026-05-07 16:38 22.57984 -99.54619 34106 ft 420 kts 308°
2026-05-07 16:39 22.61883 -99.59314 34124 ft 420 kts 308°
2026-05-07 16:39 22.65790 -99.64026 34133 ft 419 kts 307°
2026-05-07 16:40 22.69727 -99.68781 34141 ft 419 kts 307°
2026-05-07 16:40 22.73607 -99.73470 34143 ft 420 kts 307°
2026-05-07 16:41 22.77511 -99.78196 34140 ft 420 kts 307°
2026-05-07 16:41 22.81401 -99.82906 34149 ft 419 kts 307°
2026-05-07 16:42 22.85292 -99.87620 34159 ft 419 kts 307°
2026-05-07 16:42 22.89160 -99.92313 34173 ft 419 kts 307°
2026-05-07 16:43 22.93047 -99.97035 34190 ft 418 kts 307°
2026-05-07 16:43 22.96924 -100.01747 34219 ft 419 kts 307°
2026-05-07 16:44 23.00818 -100.06486 34239 ft 419 kts 307°
2026-05-07 16:44 23.04728 -100.11246 34253 ft 418 kts 307°
2026-05-07 16:45 23.08611 -100.15981 34267 ft 418 kts 307°
2026-05-07 16:45 23.12522 -100.20753 34278 ft 418 kts 307°
2026-05-07 16:46 23.16379 -100.25465 34283 ft 418 kts 307°
2026-05-07 16:46 23.20261 -100.30212 34278 ft 417 kts 307°
2026-05-07 16:47 23.24126 -100.34943 34277 ft 417 kts 307°
2026-05-07 16:47 23.27957 -100.39635 34282 ft 417 kts 307°
2026-05-07 16:48 23.31826 -100.44380 34291 ft 417 kts 307°
2026-05-07 16:48 23.35665 -100.49092 34306 ft 416 kts 307°
2026-05-07 16:49 23.39525 -100.53839 34325 ft 417 kts 307°
2026-05-07 16:49 23.43368 -100.58571 34338 ft 417 kts 306°
2026-05-07 16:50 23.47200 -100.63290 34348 ft 416 kts 306°
2026-05-07 16:50 23.51088 -100.68070 34352 ft 417 kts 306°
2026-05-07 16:51 23.54914 -100.72781 34352 ft 416 kts 306°
2026-05-07 16:51 23.58761 -100.77528 34357 ft 416 kts 306°
2026-05-07 16:52 23.62582 -100.82250 34364 ft 415 kts 306°
2026-05-07 16:52 23.66415 -100.86990 34369 ft 415 kts 306°
2026-05-07 16:53 23.70264 -100.91753 34372 ft 415 kts 305°
2026-05-07 16:53 23.74076 -100.96481 34371 ft 415 kts 306°
2026-05-07 16:54 23.77894 -101.01214 34369 ft 415 kts 306°
2026-05-07 16:54 23.81721 -101.05962 34373 ft 415 kts 305°
2026-05-07 16:55 23.85580 -101.10764 34378 ft 426 kts 306°
2026-05-07 16:55 23.89564 -101.15724 34380 ft 437 kts 306°
2026-05-07 16:56 23.94030 -101.21281 34383 ft 438 kts 306°
2026-05-07 16:56 24.26715 -101.64090 34406 ft 432 kts 301°
2026-05-07 16:57 24.37618 -101.80023 34366 ft 432 kts 301°
2026-05-07 16:57 24.59080 -102.11206 34326 ft 430 kts 300°
2026-05-07 16:58 24.68551 -102.25079 34339 ft 430 kts 300°
2026-05-07 16:58 24.72137 -102.30338 34334 ft 433 kts 300°
2026-05-07 16:59 24.75765 -102.35658 34321 ft 435 kts 300°
2026-05-07 16:59 24.79406 -102.41007 34310 ft 442 kts 300°
2026-05-07 17:00 24.83110 -102.46450 34295 ft 445 kts 300°
2026-05-07 17:00 24.86809 -102.51890 34295 ft 445 kts 300°
2026-05-07 17:01 24.90521 -102.57358 34280 ft 445 kts 300°
2026-05-07 17:01 24.94230 -102.62830 34279 ft 446 kts 300°
2026-05-07 17:02 24.97982 -102.68370 34272 ft 445 kts 299°
2026-05-07 17:02 25.01675 -102.73832 34258 ft 444 kts 299°
2026-05-07 17:03 25.05361 -102.79289 34256 ft 444 kts 299°
2026-05-07 17:03 25.09038 -102.84737 34248 ft 444 kts 299°
2026-05-07 17:04 25.12787 -102.90302 34246 ft 444 kts 299°
2026-05-07 17:04 25.16448 -102.95738 34252 ft 442 kts 299°
2026-05-07 17:05 25.20127 -103.01213 34261 ft 442 kts 299°
2026-05-07 17:05 25.23769 -103.06635 34273 ft 441 kts 299°
2026-05-07 17:06 25.27419 -103.12077 34289 ft 441 kts 299°
2026-05-07 17:06 25.31080 -103.17539 34290 ft 441 kts 298°
2026-05-07 17:07 25.34728 -103.22988 34287 ft 442 kts 298°
2026-05-07 17:07 25.38378 -103.28452 34258 ft 442 kts 298°
2026-05-07 17:08 25.42013 -103.33892 34226 ft 441 kts 298°
2026-05-07 17:08 25.45671 -103.39378 34201 ft 441 kts 298°
2026-05-07 17:09 25.49241 -103.44733 34181 ft 441 kts 298°
2026-05-07 17:09 25.52883 -103.50209 34170 ft 441 kts 298°
2026-05-07 17:10 25.56505 -103.55658 34175 ft 440 kts 298°
2026-05-07 17:10 25.60150 -103.61149 34188 ft 439 kts 298°
2026-05-07 17:11 25.63781 -103.66623 34206 ft 440 kts 298°
2026-05-07 17:11 25.67410 -103.72103 34239 ft 440 kts 298°
2026-05-07 17:12 25.71015 -103.77548 34266 ft 439 kts 297°
2026-05-07 17:12 25.74620 -103.83003 34287 ft 438 kts 297°
2026-05-07 17:13 25.78204 -103.88436 34301 ft 438 kts 297°
2026-05-07 17:13 25.81809 -103.93901 34293 ft 437 kts 297°
2026-05-07 17:14 25.85402 -103.99361 34293 ft 437 kts 297°
2026-05-07 17:14 25.88990 -104.04815 34294 ft 436 kts 297°
2026-05-07 17:15 25.92559 -104.10247 34284 ft 436 kts 297°
2026-05-07 17:15 25.96129 -104.15688 34283 ft 437 kts 297°
2026-05-07 17:16 25.99731 -104.21183 34275 ft 436 kts 297°
2026-05-07 17:16 26.03296 -104.26626 34283 ft 436 kts 297°
2026-05-07 17:17 26.06859 -104.32074 34279 ft 436 kts 297°
2026-05-07 17:17 26.10431 -104.37547 34274 ft 435 kts 297°
2026-05-07 17:18 26.14013 -104.43037 34290 ft 435 kts 297°
2026-05-07 17:18 26.17573 -104.48501 34289 ft 435 kts 297°
2026-05-07 17:19 26.21135 -104.53977 34285 ft 437 kts 297°
2026-05-07 17:19 26.24692 -104.59450 34286 ft 436 kts 297°
2026-05-07 17:20 26.28242 -104.64914 34291 ft 437 kts 297°
2026-05-07 17:20 26.31850 -104.70480 34290 ft 437 kts 296°
2026-05-07 17:21 26.35390 -104.75948 34284 ft 436 kts 296°
2026-05-07 17:21 26.38949 -104.81452 34291 ft 437 kts 296°
2026-05-07 17:22 26.42485 -104.86930 34300 ft 435 kts 296°
2026-05-07 17:22 26.46039 -104.92438 34309 ft 437 kts 296°
2026-05-07 17:23 26.49593 -104.97955 34307 ft 437 kts 296°
2026-05-07 17:23 26.53125 -105.03441 34301 ft 437 kts 296°
2026-05-07 17:24 26.56664 -105.08943 34303 ft 437 kts 296°
2026-05-07 17:24 26.60221 -105.14478 34294 ft 436 kts 296°
2026-05-07 17:25 26.63761 -105.20002 34306 ft 438 kts 296°
2026-05-07 17:25 26.67294 -105.25523 34302 ft 439 kts 296°
2026-05-07 17:26 26.70850 -105.31077 34318 ft 436 kts 296°
2026-05-07 17:26 26.74361 -105.36568 34310 ft 435 kts 296°
2026-05-07 17:27 26.77885 -105.42091 34321 ft 435 kts 296°
2026-05-07 17:27 26.81421 -105.47637 34310 ft 437 kts 296°
2026-05-07 17:28 26.84933 -105.53152 34310 ft 435 kts 296°
2026-05-07 17:28 26.88430 -105.58655 34310 ft 437 kts 296°
2026-05-07 17:29 26.91963 -105.64219 34319 ft 437 kts 296°
2026-05-07 17:29 26.95506 -105.69798 34316 ft 436 kts 295°
2026-05-07 17:30 26.99013 -105.75337 34309 ft 435 kts 295°
2026-05-07 17:30 27.02530 -105.80892 34310 ft 435 kts 295°
2026-05-07 17:31 27.06031 -105.86436 34308 ft 435 kts 295°
2026-05-07 17:31 27.09525 -105.91972 34306 ft 437 kts 295°
2026-05-07 17:32 27.13078 -105.97609 34298 ft 436 kts 295°
2026-05-07 17:32 27.15988 -106.02233 34296 ft 436 kts 295°
2026-05-07 17:33 27.20082 -106.08746 34294 ft 439 kts 295°
2026-05-07 17:33 27.23608 -106.14359 34291 ft 438 kts 295°
2026-05-07 17:34 27.27128 -106.19976 34288 ft 439 kts 295°
2026-05-07 17:34 27.30640 -106.25581 34297 ft 440 kts 295°
2026-05-07 17:35 27.34165 -106.31222 34294 ft 442 kts 295°
2026-05-07 17:35 27.37675 -106.36838 34304 ft 439 kts 295°
2026-05-07 17:36 27.41199 -106.42486 34307 ft 443 kts 295°
2026-05-07 17:36 27.44744 -106.48175 34301 ft 444 kts 295°
2026-05-07 17:37 27.48300 -106.53889 34298 ft 444 kts 295°
2026-05-07 17:37 27.51842 -106.59586 34300 ft 442 kts 295°
2026-05-07 17:38 27.55376 -106.65277 34311 ft 443 kts 294°
2026-05-07 17:38 27.58936 -106.71019 34328 ft 442 kts 294°
2026-05-07 17:39 27.62451 -106.76698 34326 ft 443 kts 294°
2026-05-07 17:39 27.65973 -106.82391 34343 ft 441 kts 294°
2026-05-07 17:40 27.69505 -106.88113 34359 ft 442 kts 294°
2026-05-07 17:40 27.73017 -106.93810 34371 ft 443 kts 294°
2026-05-07 17:41 27.76545 -106.99537 34373 ft 443 kts 294°
2026-05-07 17:41 27.80083 -107.05286 34365 ft 443 kts 294°
2026-05-07 17:42 27.83512 -107.10870 34371 ft 443 kts 294°
2026-05-07 17:42 27.87024 -107.16595 34363 ft 441 kts 294°
2026-05-07 17:43 27.90521 -107.22304 34364 ft 442 kts 294°
2026-05-07 17:43 27.94008 -107.28001 34367 ft 440 kts 294°
2026-05-07 17:44 27.97503 -107.33725 34369 ft 441 kts 294°
2026-05-07 17:44 28.00994 -107.39451 34373 ft 440 kts 294°
2026-05-07 17:45 28.04504 -107.45209 34366 ft 440 kts 293°
2026-05-07 17:45 28.07974 -107.50920 34364 ft 441 kts 293°
2026-05-07 17:46 28.11506 -107.56735 34359 ft 440 kts 293°
2026-05-07 17:46 28.14977 -107.62458 34370 ft 441 kts 293°
2026-05-07 17:47 28.18493 -107.68253 34367 ft 439 kts 293°
2026-05-07 17:47 28.21945 -107.73945 34364 ft 439 kts 292°
2026-05-07 17:48 28.25403 -107.79666 34364 ft 439 kts 292°
2026-05-07 17:48 28.28860 -107.85394 34371 ft 439 kts 292°
2026-05-07 17:49 28.32306 -107.91116 34361 ft 440 kts 292°
2026-05-07 17:49 28.35767 -107.96864 34358 ft 441 kts 292°
2026-05-07 17:50 28.39213 -108.02598 34354 ft 441 kts 292°
2026-05-07 17:50 28.42671 -108.08353 34341 ft 439 kts 292°
2026-05-07 17:51 28.46107 -108.14091 34327 ft 439 kts 292°
2026-05-07 17:51 28.49538 -108.19827 34325 ft 440 kts 292°
2026-05-07 17:52 28.52978 -108.25583 34307 ft 439 kts 292°
2026-05-07 17:52 28.56418 -108.31347 34291 ft 440 kts 292°
2026-05-07 17:53 28.59847 -108.37101 34282 ft 440 kts 292°
2026-05-07 17:53 28.63284 -108.42879 34270 ft 440 kts 292°
2026-05-07 17:54 28.66693 -108.48615 34263 ft 439 kts 292°
2026-05-07 17:54 28.70118 -108.54388 34248 ft 439 kts 292°
2026-05-07 17:55 28.73531 -108.60156 34225 ft 439 kts 292°
2026-05-07 17:55 28.76941 -108.65931 34210 ft 438 kts 292°
2026-05-07 17:56 28.80376 -108.71759 34189 ft 438 kts 291°
2026-05-07 17:56 28.83776 -108.77536 34168 ft 437 kts 291°
2026-05-07 17:57 28.86594 -108.82332 34163 ft 439 kts 292°
2026-05-07 17:57 28.90535 -108.89046 34153 ft 436 kts 292°
2026-05-07 17:58 28.93922 -108.94825 34151 ft 437 kts 292°
2026-05-07 17:58 28.97297 -109.00591 34163 ft 437 kts 292°
2026-05-07 17:59 29.00673 -109.06368 34145 ft 437 kts 292°
2026-05-07 17:59 29.04050 -109.12154 34122 ft 437 kts 292°
2026-05-07 18:00 29.07419 -109.17937 34092 ft 438 kts 292°
2026-05-07 18:00 29.10812 -109.23766 34067 ft 436 kts 292°
2026-05-07 18:01 29.14192 -109.29588 34052 ft 438 kts 292°
2026-05-07 18:01 29.17575 -109.35418 34066 ft 439 kts 292°
2026-05-07 18:02 29.22674 -109.44221 34087 ft 440 kts 292°
2026-05-07 18:03 29.26064 -109.50072 34106 ft 441 kts 292°
2026-05-07 18:03 29.29452 -109.55930 34100 ft 440 kts 293°
2026-05-07 18:04 29.32825 -109.61778 34090 ft 442 kts 292°
2026-05-07 18:04 29.36243 -109.67711 34076 ft 441 kts 292°
2026-05-07 18:05 29.39607 -109.73566 34077 ft 441 kts 292°
2026-05-07 18:05 29.42983 -109.79442 34085 ft 443 kts 292°
2026-05-07 18:06 29.46394 -109.85389 34100 ft 441 kts 292°
2026-05-07 18:06 29.49751 -109.91251 34102 ft 441 kts 293°
2026-05-07 18:07 29.53130 -109.97167 34108 ft 445 kts 293°
2026-05-07 18:07 29.56528 -110.03119 34092 ft 445 kts 293°
2026-05-07 18:08 29.59918 -110.09075 34093 ft 444 kts 294°
2026-05-07 18:08 29.63333 -110.15070 34075 ft 445 kts 294°
2026-05-07 18:09 29.66720 -110.21024 34077 ft 446 kts 294°
2026-05-07 18:09 29.70108 -110.26997 34064 ft 445 kts 295°
2026-05-07 18:10 29.73500 -110.32983 34061 ft 447 kts 295°
2026-05-07 18:10 29.76880 -110.38951 34071 ft 448 kts 295°
2026-05-07 18:11 29.80282 -110.44978 34064 ft 449 kts 295°
2026-05-07 18:11 29.83683 -110.51015 34066 ft 449 kts 296°
2026-05-07 18:12 29.87095 -110.57068 34078 ft 449 kts 296°
2026-05-07 18:12 29.90502 -110.63119 34081 ft 451 kts 296°
2026-05-07 18:13 29.93940 -110.69254 34089 ft 453 kts 296°
2026-05-07 18:13 29.97361 -110.75350 34075 ft 452 kts 296°
2026-05-07 18:14 30.00765 -110.81435 34081 ft 454 kts 296°
2026-05-07 18:14 30.04183 -110.87540 34080 ft 453 kts 296°
2026-05-07 18:15 30.07584 -110.93636 34063 ft 453 kts 297°
2026-05-07 18:15 30.11036 -110.99826 34063 ft 454 kts 297°
2026-05-07 18:16 30.14517 -111.06029 34058 ft 455 kts 297°
2026-05-07 18:16 30.17962 -111.12170 34057 ft 457 kts 298°
2026-05-07 18:17 30.21409 -111.18317 34051 ft 457 kts 298°
2026-05-07 18:17 30.24883 -111.24526 34062 ft 457 kts 298°
2026-05-07 18:18 30.28323 -111.30704 34057 ft 458 kts 299°
2026-05-07 18:18 30.31772 -111.36892 34045 ft 456 kts 299°
2026-05-07 18:19 30.35208 -111.43068 34046 ft 458 kts 299°
2026-05-07 18:19 30.38653 -111.49278 34046 ft 456 kts 300°
2026-05-07 18:20 30.42081 -111.55458 34050 ft 456 kts 300°
2026-05-07 18:20 30.45507 -111.61649 34034 ft 456 kts 300°
2026-05-07 18:21 30.48935 -111.67850 34030 ft 456 kts 300°
2026-05-07 18:21 30.52364 -111.74062 34019 ft 456 kts 301°
2026-05-07 18:22 30.55778 -111.80259 34022 ft 458 kts 301°
2026-05-07 18:22 30.59208 -111.86487 34020 ft 459 kts 301°
2026-05-07 18:23 30.62649 -111.92757 34017 ft 459 kts 301°
2026-05-07 18:23 30.66071 -111.99007 34017 ft 458 kts 302°
2026-05-07 18:24 30.69506 -112.05276 34016 ft 459 kts 302°
2026-05-07 18:24 30.72918 -112.11506 34019 ft 461 kts 302°
2026-05-07 18:25 30.76347 -112.17786 34012 ft 460 kts 302°
2026-05-07 18:25 30.79761 -112.24046 34023 ft 458 kts 302°
2026-05-07 18:26 30.83154 -112.30296 34029 ft 458 kts 302°
2026-05-07 18:26 30.86555 -112.36566 34010 ft 458 kts 303°
2026-05-07 18:27 30.89963 -112.42839 34033 ft 457 kts 303°
2026-05-07 18:27 30.93369 -112.49120 34018 ft 457 kts 303°
2026-05-07 18:28 30.96751 -112.55375 34014 ft 456 kts 303°
2026-05-07 18:28 31.00124 -112.61627 34013 ft 456 kts 304°
2026-05-07 18:29 31.03501 -112.67895 34026 ft 456 kts 304°
2026-05-07 18:29 31.06859 -112.74142 33995 ft 455 kts 305°
2026-05-07 18:30 31.10222 -112.80402 33992 ft 455 kts 305°
2026-05-07 18:30 31.13664 -112.86814 33990 ft 456 kts 305°
2026-05-07 18:31 31.17033 -112.93104 33994 ft 457 kts 305°
2026-05-07 18:31 31.20401 -112.99412 33979 ft 458 kts 306°
2026-05-07 18:32 31.23761 -113.05708 34000 ft 457 kts 306°
2026-05-07 18:32 31.27112 -113.11991 33986 ft 456 kts 306°
2026-05-07 18:33 31.30462 -113.18300 33995 ft 455 kts 307°
2026-05-07 18:33 31.33714 -113.24429 33980 ft 454 kts 307°
2026-05-07 18:34 31.37046 -113.30706 33983 ft 454 kts 307°
2026-05-07 18:34 31.40491 -113.36857 33977 ft 452 kts 309°
2026-05-07 18:35 31.43940 -113.42939 33978 ft 450 kts 308°
2026-05-07 18:35 31.47396 -113.49076 33976 ft 451 kts 308°
2026-05-07 18:36 31.50833 -113.55208 33977 ft 450 kts 308°
2026-05-07 18:36 31.54250 -113.61317 33968 ft 450 kts 309°
2026-05-07 18:37 31.57700 -113.67493 33958 ft 449 kts 308°
2026-05-07 18:37 31.61123 -113.73635 33985 ft 448 kts 308°
2026-05-07 18:38 31.64516 -113.79727 33963 ft 448 kts 308°
2026-05-07 18:38 31.67932 -113.85871 33954 ft 449 kts 308°
2026-05-07 18:39 31.71331 -113.92000 33954 ft 448 kts 308°
2026-05-07 18:39 31.74727 -113.98128 33950 ft 447 kts 308°
2026-05-07 18:40 31.78099 -114.04224 33954 ft 448 kts 308°
2026-05-07 18:40 31.81506 -114.10389 33958 ft 448 kts 308°
2026-05-07 18:41 31.84892 -114.16531 33951 ft 448 kts 308°
2026-05-07 18:41 31.88275 -114.22678 33951 ft 447 kts 308°
2026-05-07 18:42 31.91654 -114.28826 33954 ft 447 kts 308°
2026-05-07 18:42 31.95014 -114.34950 33968 ft 448 kts 308°
2026-05-07 18:43 31.98391 -114.41116 33960 ft 449 kts 308°
2026-05-07 18:43 32.01752 -114.47272 33947 ft 449 kts 308°
2026-05-07 18:44 32.05141 -114.53484 33951 ft 450 kts 308°
2026-05-07 18:44 32.08516 -114.59675 33947 ft 450 kts 307°
2026-05-07 18:45 32.11919 -114.65929 33947 ft 450 kts 307°
2026-05-07 18:45 32.15321 -114.72191 33945 ft 450 kts 307°
2026-05-07 18:46 32.18728 -114.78477 33937 ft 450 kts 307°
2026-05-07 18:46 32.22096 -114.84700 33934 ft 451 kts 307°
2026-05-07 18:47 32.25465 -114.90932 33926 ft 451 kts 307°
2026-05-07 18:47 32.28843 -114.97194 33927 ft 451 kts 307°
2026-05-07 18:48 32.32210 -115.03450 33926 ft 451 kts 307°
2026-05-07 18:48 32.35580 -115.09712 33930 ft 451 kts 307°
2026-05-07 18:49 32.38953 -115.15973 33943 ft 451 kts 307°
2026-05-07 18:49 32.42321 -115.22244 33948 ft 452 kts 307°
2026-05-07 18:50 32.45663 -115.28484 33953 ft 453 kts 307°
2026-05-07 18:50 32.49049 -115.34819 33957 ft 453 kts 307°
2026-05-07 18:51 32.52394 -115.41084 33962 ft 452 kts 307°
2026-05-07 18:51 32.55772 -115.47421 33961 ft 453 kts 307°
2026-05-07 18:52 32.59130 -115.53735 33955 ft 454 kts 307°
2026-05-07 18:52 32.62485 -115.60061 33958 ft 454 kts 307°
2026-05-07 18:53 32.65858 -115.66416 33961 ft 454 kts 306°
2026-05-07 18:53 32.69249 -115.72782 33960 ft 454 kts 306°
2026-05-07 18:54 32.72590 -115.79122 33962 ft 454 kts 306°
2026-05-07 18:54 32.75940 -115.85506 33966 ft 456 kts 306°
2026-05-07 18:55 32.79291 -115.91904 33967 ft 457 kts 306°
2026-05-07 18:55 32.82600 -115.98338 33977 ft 458 kts 304°
2026-05-07 18:56 32.85880 -116.04906 33996 ft 456 kts 304°
2026-05-07 18:56 32.89103 -116.11362 33813 ft 456 kts 304°
2026-05-07 18:56 32.90724 -116.14611 33106 ft 455 kts 304°
2026-05-07 18:57 32.92321 -116.17814 32577 ft 449 kts 304°
2026-05-07 18:57 32.93924 -116.21031 31784 ft 450 kts 304°
2026-05-07 18:57 32.95511 -116.24217 30990 ft 448 kts 304°
2026-05-07 18:57 32.97071 -116.27352 30244 ft 438 kts 304°
2026-05-07 18:58 32.98607 -116.30444 29535 ft 428 kts 304°
2026-05-07 18:58 33.00109 -116.33466 28880 ft 421 kts 305°
2026-05-07 18:58 33.01577 -116.36423 28426 ft 411 kts 305°
2026-05-07 18:58 33.03028 -116.39342 27983 ft 404 kts 305°
2026-05-07 18:59 33.04405 -116.42237 27537 ft 402 kts 302°
2026-05-07 18:59 33.05656 -116.45229 27084 ft 401 kts 299°
2026-05-07 18:59 33.06806 -116.48260 26646 ft 399 kts 298°
2026-05-07 18:59 33.07934 -116.51279 26202 ft 396 kts 298°
2026-05-07 19:00 33.09058 -116.54295 25745 ft 394 kts 298°
2026-05-07 19:00 33.10168 -116.57265 25281 ft 392 kts 298°
2026-05-07 19:00 33.11298 -116.60295 24820 ft 390 kts 299°
2026-05-07 19:00 33.12375 -116.63300 24356 ft 390 kts 296°
2026-05-07 19:01 33.13262 -116.66413 23885 ft 391 kts 290°
2026-05-07 19:01 33.13908 -116.69583 23411 ft 391 kts 285°
2026-05-07 19:01 33.14398 -116.72784 22932 ft 391 kts 284°
2026-05-07 19:01 33.14860 -116.75964 22467 ft 391 kts 284°
2026-05-07 19:02 33.15291 -116.78973 22011 ft 390 kts 284°
2026-05-07 19:02 33.15757 -116.82201 21518 ft 389 kts 284°
2026-05-07 19:02 33.16217 -116.85375 21043 ft 389 kts 284°
2026-05-07 19:02 33.16676 -116.88538 20565 ft 388 kts 283°
2026-05-07 19:03 33.17139 -116.91727 20082 ft 387 kts 283°
2026-05-07 19:03 33.17600 -116.94905 19585 ft 386 kts 283°
2026-05-07 19:03 33.18058 -116.98063 19126 ft 383 kts 283°
2026-05-07 19:03 33.18510 -117.01197 18655 ft 381 kts 283°
2026-05-07 19:04 33.18964 -117.04331 18181 ft 380 kts 283°
2026-05-07 19:04 33.19410 -117.07407 17705 ft 379 kts 283°
2026-05-07 19:04 33.19861 -117.10539 17230 ft 378 kts 283°
2026-05-07 19:04 33.20305 -117.13631 16760 ft 377 kts 283°
2026-05-07 19:05 33.20743 -117.16694 16291 ft 376 kts 283°
2026-05-07 19:05 33.21184 -117.19776 15817 ft 373 kts 283°
2026-05-07 19:05 33.21620 -117.22817 15347 ft 372 kts 283°
2026-05-07 19:05 33.22057 -117.25867 14877 ft 371 kts 283°
2026-05-07 19:06 33.22490 -117.28908 14407 ft 370 kts 283°
2026-05-07 19:06 33.23370 -117.34914 13820 ft 357 kts 283°
2026-05-07 19:06 33.23830 -117.37833 13843 ft 358 kts 283°
2026-05-07 19:07 33.24287 -117.40745 13863 ft 359 kts 283°
2026-05-07 19:07 33.24746 -117.43688 13883 ft 359 kts 284°
2026-05-07 19:07 33.25202 -117.46606 13894 ft 358 kts 284°
2026-05-07 19:07 33.25658 -117.49526 13612 ft 361 kts 284°
2026-05-07 19:08 33.26234 -117.52399 13098 ft 358 kts 292°
2026-05-07 19:08 33.27228 -117.55088 12794 ft 346 kts 303°
2026-05-07 19:08 33.28496 -117.57549 12815 ft 344 kts 306°
2026-05-07 19:08 33.29795 -117.59933 12824 ft 345 kts 306°
2026-05-07 19:09 33.31109 -117.62337 12850 ft 345 kts 307°
2026-05-07 19:09 33.32426 -117.64756 12866 ft 345 kts 306°
2026-05-07 19:09 33.33741 -117.67184 12897 ft 346 kts 306°
2026-05-07 19:09 33.35045 -117.69602 12931 ft 346 kts 306°
2026-05-07 19:10 33.36337 -117.72004 12928 ft 346 kts 306°
2026-05-07 19:10 33.37644 -117.74436 12928 ft 346 kts 306°
2026-05-07 19:10 33.38957 -117.76880 12925 ft 346 kts 306°
2026-05-07 19:10 33.40255 -117.79301 12684 ft 348 kts 306°
2026-05-07 19:11 33.41566 -117.81747 12183 ft 348 kts 305°
2026-05-07 19:11 33.42861 -117.84167 11738 ft 345 kts 305°
2026-05-07 19:11 33.44143 -117.86568 11287 ft 343 kts 305°
2026-05-07 19:11 33.45443 -117.88997 10850 ft 341 kts 305°
2026-05-07 19:12 33.46715 -117.91348 10417 ft 337 kts 308°
2026-05-07 19:12 33.48319 -117.93303 10195 ft 321 kts 328°
2026-05-07 19:12 33.50257 -117.94447 10084 ft 301 kts 342°
2026-05-07 19:12 33.52160 -117.95264 9973 ft 282 kts 343°
2026-05-07 19:13 33.54011 -117.96035 9677 ft 281 kts 342°
2026-05-07 19:13 33.55857 -117.96812 9324 ft 280 kts 342°
2026-05-07 19:13 33.57678 -117.97591 9011 ft 276 kts 341°
2026-05-07 19:13 33.59507 -117.98380 8685 ft 276 kts 341°
2026-05-07 19:14 33.61314 -117.99161 8346 ft 277 kts 341°
2026-05-07 19:14 33.63150 -117.99906 7997 ft 277 kts 343°
2026-05-07 19:14 33.65023 -118.00594 7922 ft 275 kts 343°
2026-05-07 19:14 33.66859 -118.01264 7579 ft 277 kts 343°
2026-05-07 19:15 33.68732 -118.01948 7207 ft 275 kts 343°
2026-05-07 19:15 33.70551 -118.02612 6933 ft 270 kts 343°
2026-05-07 19:15 33.72333 -118.03264 6874 ft 260 kts 343°
2026-05-07 19:15 33.74027 -118.03881 6854 ft 249 kts 343°
2026-05-07 19:16 33.75689 -118.04488 6862 ft 243 kts 343°
2026-05-07 19:16 33.77314 -118.05082 6873 ft 245 kts 342°
2026-05-07 19:16 33.78958 -118.05747 6928 ft 246 kts 339°
2026-05-07 19:16 33.80560 -118.06505 6656 ft 248 kts 338°
2026-05-07 19:17 33.82184 -118.07292 6333 ft 249 kts 338°
2026-05-07 19:17 33.83807 -118.08079 6003 ft 248 kts 338°
2026-05-07 19:17 33.85386 -118.08839 5626 ft 240 kts 338°
2026-05-07 19:17 33.86927 -118.09579 5313 ft 228 kts 338°
2026-05-07 19:18 33.88360 -118.10264 5044 ft 216 kts 340°
2026-05-07 19:18 33.89820 -118.10704 4840 ft 214 kts 353°
2026-05-07 19:18 33.91283 -118.10842 4744 ft 204 kts 356°
2026-05-07 19:18 33.92684 -118.11050 4467 ft 198 kts 342°
2026-05-07 19:19 33.93871 -118.11797 4276 ft 188 kts 324°
2026-05-07 19:19 33.94897 -118.12734 4078 ft 179 kts 321°
2026-05-07 19:19 33.95727 -118.13784 3861 ft 170 kts 293°
2026-05-07 19:19 33.95964 -118.15116 3712 ft 159 kts 271°
2026-05-07 19:20 33.95934 -118.16459 3553 ft 159 kts 265°
2026-05-07 19:20 33.95840 -118.17790 3342 ft 158 kts 264°
2026-05-07 19:20 33.95719 -118.19100 3130 ft 157 kts 263°
2026-05-07 19:20 33.95587 -118.20423 2915 ft 157 kts 262°
2026-05-07 19:21 33.95451 -118.21717 2705 ft 156 kts 261°
2026-05-07 19:21 33.95311 -118.23019 2495 ft 156 kts 262°
2026-05-07 19:21 33.95174 -118.24317 2293 ft 155 kts 262°
2026-05-07 19:21 33.95041 -118.25598 2094 ft 155 kts 262°
2026-05-07 19:22 33.94907 -118.26892 1916 ft 154 kts 262°
2026-05-07 19:22 33.94775 -118.28168 1722 ft 150 kts 262°
2026-05-07 19:22 33.94653 -118.29348 1504 ft 139 kts 262°
2026-05-07 19:22 33.94534 -118.30505 1328 ft 138 kts 262°
2026-05-07 19:23 33.94415 -118.31655 1156 ft 137 kts 262°
2026-05-07 19:23 33.94299 -118.32787 987 ft 137 kts 262°
2026-05-07 19:23 33.94184 -118.33932 811 ft 136 kts 263°
2026-05-07 19:23 33.94072 -118.35059 635 ft 135 kts 263°
2026-05-07 19:24 33.93951 -118.36182 459 ft 135 kts 263°
2026-05-07 19:24 33.93833 -118.37298 292 ft 134 kts 263°
2026-05-07 19:24 33.93723 -118.38403 126 ft 132 kts 263°
2026-05-07 19:24 33.93622 -118.39406 109 ft 96 kts 263°
2026-05-07 19:25 33.93563 -118.40002 117 ft 50 kts 269°
2026-05-07 19:25 33.93600 -118.40287 121 ft 26 kts 292°
2026-05-07 19:25 33.93623 -118.40471 123 ft 21 kts 263°
2026-05-07 19:25 33.93606 -118.40636 125 ft 18 kts 264°
2026-05-07 19:26 33.93590 -118.40788 126 ft 17 kts 262°
2026-05-07 19:26 33.93630 -118.40891 126 ft 14 kts 347°
2026-05-07 19:26 33.93732 -118.40906 126 ft 15 kts 352°
2026-05-07 19:26 33.93832 -118.40921 126 ft 10 kts 352°
2026-05-07 19:27 33.93860 -118.40987 126 ft 10 kts 263°
2026-05-07 19:27 33.93850 -118.41081 125 ft 12 kts 263°
2026-05-07 19:27 33.93840 -118.41204 125 ft 15 kts 266°
2026-05-07 19:27 33.93882 -118.41270 125 ft 11 kts 356°
2026-05-07 19:28 33.93995 -118.41282 124 ft 21 kts 353°
2026-05-07 19:28 33.94155 -118.41308 123 ft 23 kts 354°
2026-05-07 19:28 33.94315 -118.41330 122 ft 23 kts 353°
2026-05-07 19:28 33.94474 -118.41354 122 ft 22 kts 353°
2026-05-07 19:29 33.94612 -118.41373 122 ft 14 kts 353°
2026-05-07 19:29 33.94690 -118.41322 122 ft 14 kts 82°
2026-05-07 19:29 33.94710 -118.41205 122 ft 8 kts 71°
2026-05-07 19:29 33.94728 -118.41138 122 ft 9 kts 78°
2026-05-07 19:30 33.94732 -118.41102 123 ft 0 kts 84°
2026-05-07 19:30 33.94732 -118.41101 123 ft 0 kts 84°
2026-05-07 19:30 33.94733 -118.41087 123 ft 7 kts 84°
2026-05-07 19:31 33.94743 -118.40976 123 ft 16 kts 88°
2026-05-07 19:31 33.94674 -118.40909 123 ft 11 kts 175°
2026-05-07 19:31 33.94601 -118.40901 123 ft 6 kts 188°
2026-05-07 19:31 33.94590 -118.40917 123 ft 2 kts 276°
2026-05-07 19:32 33.94592 -118.40923 123 ft 1 kts 289°
2026-05-07 19:32 33.94599 -118.40942 123 ft 3 kts 297°
2026-05-07 19:32 33.94609 -118.40968 123 ft 2 kts 295°
2026-05-07 19:32 33.94613 -118.40978 123 ft 0 kts 295°